contact:dominique.lefevre@mio.osupytheas.fr, maurice.libes@osupytheas.fr, didier.mallarino@osupytheas.fr
Project:EMSO http://www.emso-fr.org/EMSO-France
Depth: 2436.0 m
Title:EMSO Ligure Ouest : Data MII capteur MICROCAT
DateTime_Computer,Latitude,Longitude,Temperature,Conductivity,Pressure,DateTime_Instrument
DateTime_Computer,Latitude,Longitude,degC,S m-1,dbar,DateTime_Instrument
2023-05-01T00:01:07Z,42.805,6.029,13.3028,4.60091,2470.624,2023-5-01T02:04:12Z
2023-05-01T00:04:10Z,42.805,6.029,13.3036,4.60097,2470.646,2023-5-01T02:07:15Z
2023-05-01T00:07:13Z,42.805,6.029,13.3024,4.60090,2470.646,2023-5-01T02:10:18Z
2023-05-01T00:10:16Z,42.805,6.029,13.3021,4.60093,2470.67,2023-5-01T02:13:21Z
2023-05-01T00:13:19Z,42.805,6.029,13.3031,4.60114,2470.646,2023-5-01T02:16:24Z
2023-05-01T00:16:22Z,42.805,6.029,13.3027,4.60093,2470.67,2023-5-01T02:19:28Z
2023-05-01T00:19:25Z,42.805,6.029,13.3027,4.60087,2470.646,2023-5-01T02:22:31Z
2023-05-01T00:22:28Z,42.805,6.029,13.3026,4.60097,2470.67,2023-5-01T02:25:34Z
2023-05-01T00:25:31Z,42.805,6.029,13.3034,4.60098,2470.646,2023-5-01T02:28:37Z
2023-05-01T00:28:34Z,42.805,6.029,13.3031,4.60105,2470.646,2023-5-01T02:31:40Z
2023-05-01T00:31:37Z,42.805,6.029,13.3022,4.60098,2470.661,2023-5-01T02:34:43Z
2023-05-01T00:34:41Z,42.805,6.029,13.3019,4.60094,2470.684,2023-5-01T02:37:46Z
2023-05-01T00:37:44Z,42.805,6.029,13.3021,4.60094,2470.646,2023-5-01T02:40:49Z
2023-05-01T00:40:47Z,42.805,6.029,13.3029,4.60102,2470.67,2023-5-01T02:43:52Z
2023-05-01T00:43:50Z,42.805,6.029,13.3028,4.60105,2470.67,2023-5-01T02:46:55Z
2023-05-01T00:46:53Z,42.805,6.029,13.3028,4.60102,2470.684,2023-5-01T02:49:58Z
2023-05-01T00:49:56Z,42.805,6.029,13.3024,4.60090,2470.67,2023-5-01T02:53:01Z
2023-05-01T00:52:59Z,42.805,6.029,13.3022,4.60081,2470.67,2023-5-01T02:56:04Z
2023-05-01T00:56:02Z,42.805,6.029,13.3028,4.60090,2470.646,2023-5-01T02:59:08Z
2023-05-01T00:59:05Z,42.805,6.029,13.3022,4.60092,2470.67,2023-5-01T03:02:11Z
2023-05-01T01:02:08Z,42.805,6.029,13.3028,4.60093,2470.684,2023-5-01T03:05:14Z
2023-05-01T01:05:11Z,42.805,6.029,13.3025,4.60101,2470.693,2023-5-01T03:08:17Z
2023-05-01T01:08:14Z,42.805,6.029,13.3024,4.60097,2470.67,2023-5-01T03:11:20Z
2023-05-01T01:11:17Z,42.805,6.029,13.3022,4.60087,2470.693,2023-5-01T03:14:23Z
2023-05-01T01:14:21Z,42.805,6.029,13.3027,4.60104,2470.679,2023-5-01T03:17:26Z
2023-05-01T01:17:24Z,42.805,6.029,13.3028,4.60104,2470.717,2023-5-01T03:20:29Z
2023-05-01T01:20:27Z,42.805,6.029,13.3029,4.60104,2470.693,2023-5-01T03:23:32Z
2023-05-01T01:23:30Z,42.805,6.029,13.3030,4.60099,2470.67,2023-5-01T03:26:35Z
2023-05-01T01:26:33Z,42.805,6.029,13.3028,4.60094,2470.693,2023-5-01T03:29:38Z
2023-05-01T01:29:36Z,42.805,6.029,13.3037,4.60117,2470.67,2023-5-01T03:32:41Z
2023-05-01T01:32:39Z,42.805,6.029,13.3036,4.60108,2470.707,2023-5-01T03:35:44Z
2023-05-01T01:35:42Z,42.805,6.029,13.3030,4.60097,2470.717,2023-5-01T03:38:48Z
2023-05-01T01:38:45Z,42.805,6.029,13.3029,4.60104,2470.707,2023-5-01T03:41:51Z
2023-05-01T01:41:48Z,42.805,6.029,13.3027,4.60111,2470.73,2023-5-01T03:44:54Z
2023-05-01T01:44:51Z,42.805,6.029,13.3024,4.60097,2470.717,2023-5-01T03:47:57Z
2023-05-01T01:47:54Z,42.805,6.029,13.3029,4.60097,2470.693,2023-5-01T03:51:00Z
2023-05-01T01:50:57Z,42.805,6.029,13.3024,4.60089,2470.693,2023-5-01T03:54:03Z
2023-05-01T01:54:00Z,42.805,6.029,13.3024,4.60089,2470.707,2023-5-01T03:57:06Z
2023-05-01T01:57:04Z,42.805,6.029,13.3024,4.60115,2470.74,2023-5-01T04:00:09Z
2023-05-01T02:00:07Z,42.805,6.029,13.3027,4.60097,2470.74,2023-5-01T04:03:12Z
2023-05-01T02:03:10Z,42.805,6.029,13.3026,4.60094,2470.74,2023-5-01T04:06:15Z
2023-05-01T02:06:13Z,42.805,6.029,13.3028,4.60096,2470.74,2023-5-01T04:09:18Z
2023-05-01T02:09:16Z,42.805,6.029,13.3026,4.60092,2470.73,2023-5-01T04:12:21Z
2023-05-01T02:12:19Z,42.805,6.029,13.3026,4.60096,2470.74,2023-5-01T04:15:24Z
2023-05-01T02:15:22Z,42.805,6.029,13.3024,4.60094,2470.717,2023-5-01T04:18:27Z
2023-05-01T02:18:25Z,42.805,6.029,13.3030,4.60090,2470.73,2023-5-01T04:21:31Z
2023-05-01T02:21:28Z,42.805,6.029,13.3024,4.60092,2470.73,2023-5-01T04:24:34Z
2023-05-01T02:24:31Z,42.805,6.029,13.3029,4.60087,2470.754,2023-5-01T04:27:37Z
2023-05-01T02:27:34Z,42.805,6.029,13.3023,4.60093,2470.754,2023-5-01T04:30:40Z
2023-05-01T02:30:37Z,42.805,6.029,13.3029,4.60098,2470.73,2023-5-01T04:33:43Z
2023-05-01T02:33:40Z,42.805,6.029,13.3026,4.60110,2470.717,2023-5-01T04:36:46Z
2023-05-01T02:36:43Z,42.805,6.029,13.3026,4.60104,2470.754,2023-5-01T04:39:49Z
2023-05-01T02:39:47Z,42.805,6.029,13.3030,4.60116,2470.73,2023-5-01T04:42:52Z
2023-05-01T02:42:50Z,42.805,6.029,13.3027,4.60105,2470.74,2023-5-01T04:45:55Z
2023-05-01T02:45:53Z,42.805,6.029,13.3031,4.60099,2470.74,2023-5-01T04:48:58Z
2023-05-01T02:48:56Z,42.805,6.029,13.3031,4.60107,2470.754,2023-5-01T04:52:01Z
2023-05-01T02:51:59Z,42.805,6.029,13.3029,4.60093,2470.74,2023-5-01T04:55:04Z
2023-05-01T02:55:02Z,42.805,6.029,13.3029,4.60090,2470.717,2023-5-01T04:58:07Z
2023-05-01T02:58:05Z,42.805,6.029,13.3031,4.60093,2470.777,2023-5-01T05:01:11Z
2023-05-01T03:01:08Z,42.805,6.029,13.3032,4.60104,2470.74,2023-5-01T05:04:14Z
2023-05-01T03:04:11Z,42.805,6.029,13.3031,4.60104,2470.777,2023-5-01T05:07:17Z
2023-05-01T03:07:14Z,42.805,6.029,13.3031,4.60102,2470.787,2023-5-01T05:10:20Z
2023-05-01T03:10:17Z,42.805,6.029,13.3024,4.60084,2470.74,2023-5-01T05:13:23Z
2023-05-01T03:13:20Z,42.805,6.029,13.3039,4.60092,2470.763,2023-5-01T05:16:26Z
2023-05-01T03:16:23Z,42.805,6.029,13.3028,4.60089,2470.754,2023-5-01T05:19:29Z
2023-05-01T03:19:27Z,42.805,6.029,13.3026,4.60101,2470.73,2023-5-01T05:22:32Z
2023-05-01T03:22:30Z,42.805,6.029,13.3030,4.60106,2470.73,2023-5-01T05:25:35Z
2023-05-01T03:25:33Z,42.805,6.029,13.3024,4.60102,2470.73,2023-5-01T05:28:38Z
2023-05-01T03:28:36Z,42.805,6.029,13.3023,4.60084,2470.74,2023-5-01T05:31:41Z
2023-05-01T03:31:39Z,42.805,6.029,13.3029,4.60091,2470.763,2023-5-01T05:34:44Z
2023-05-01T03:34:42Z,42.805,6.029,13.3029,4.60094,2470.74,2023-5-01T05:37:47Z
2023-05-01T03:37:45Z,42.805,6.029,13.3031,4.60094,2470.74,2023-5-01T05:40:51Z
2023-05-01T03:40:48Z,42.805,6.029,13.3029,4.60098,2470.75,2023-5-01T05:43:54Z
2023-05-01T03:43:51Z,42.805,6.029,13.3034,4.60092,2470.763,2023-5-01T05:46:57Z
2023-05-01T03:46:54Z,42.805,6.029,13.3029,4.60103,2470.74,2023-5-01T05:50:00Z
2023-05-01T03:49:57Z,42.805,6.029,13.3024,4.60093,2470.763,2023-5-01T05:53:03Z
2023-05-01T03:53:00Z,42.805,6.029,13.3026,4.60092,2470.777,2023-5-01T05:56:06Z
2023-05-01T03:56:03Z,42.805,6.029,13.3029,4.60094,2470.74,2023-5-01T05:59:09Z
2023-05-01T03:59:06Z,42.805,6.029,13.3027,4.60092,2470.763,2023-5-01T06:02:12Z
2023-05-01T04:02:10Z,42.805,6.029,13.3025,4.60089,2470.717,2023-5-01T06:05:15Z
2023-05-01T04:05:13Z,42.805,6.029,13.3026,4.60095,2470.8,2023-5-01T06:08:18Z
2023-05-01T04:08:16Z,42.805,6.029,13.3026,4.60097,2470.8,2023-5-01T06:11:21Z
2023-05-01T04:11:19Z,42.805,6.029,13.3021,4.60082,2470.754,2023-5-01T06:14:24Z
2023-05-01T04:14:22Z,42.805,6.029,13.3031,4.60092,2470.777,2023-5-01T06:17:27Z
2023-05-01T04:17:25Z,42.805,6.029,13.3026,4.60092,2470.74,2023-5-01T06:20:30Z
2023-05-01T04:20:28Z,42.805,6.029,13.3030,4.60097,2470.74,2023-5-01T06:23:34Z
2023-05-01T04:23:31Z,42.805,6.029,13.3027,4.60095,2470.8,2023-5-01T06:26:37Z
2023-05-01T04:26:34Z,42.805,6.029,13.3024,4.60093,2470.763,2023-5-01T06:29:40Z
2023-05-01T04:29:37Z,42.805,6.029,13.3027,4.60087,2470.763,2023-5-01T06:32:43Z
2023-05-01T04:32:40Z,42.805,6.029,13.3028,4.60089,2470.763,2023-5-01T06:35:46Z
2023-05-01T04:35:43Z,42.805,6.029,13.3028,4.60083,2470.8,2023-5-01T06:38:49Z
2023-05-01T04:38:46Z,42.805,6.029,13.3028,4.60086,2470.777,2023-5-01T06:41:52Z
2023-05-01T04:41:50Z,42.805,6.029,13.3027,4.60091,2470.754,2023-5-01T06:44:55Z
2023-05-01T04:44:53Z,42.805,6.029,13.3034,4.60103,2470.763,2023-5-01T06:47:58Z
2023-05-01T04:47:56Z,42.805,6.029,13.3027,4.60097,2470.763,2023-5-01T06:51:01Z
2023-05-01T04:50:59Z,42.805,6.029,13.3021,4.60086,2470.763,2023-5-01T06:54:04Z
2023-05-01T04:54:02Z,42.805,6.029,13.3031,4.60094,2470.74,2023-5-01T06:57:07Z
2023-05-01T04:57:05Z,42.805,6.029,13.3031,4.60094,2470.763,2023-5-01T07:00:10Z
2023-05-01T05:00:08Z,42.805,6.029,13.3024,4.60084,2470.777,2023-5-01T07:03:14Z
2023-05-01T05:03:11Z,42.805,6.029,13.3025,4.60087,2470.763,2023-5-01T07:06:17Z
2023-05-01T05:06:14Z,42.805,6.029,13.3020,4.60090,2470.74,2023-5-01T07:09:20Z
2023-05-01T05:09:17Z,42.805,6.029,13.3026,4.60097,2470.74,2023-5-01T07:12:23Z
2023-05-01T05:12:20Z,42.805,6.029,13.3029,4.60088,2470.777,2023-5-01T07:15:26Z
2023-05-01T05:15:23Z,42.805,6.029,13.3030,4.60101,2470.763,2023-5-01T07:18:29Z
2023-05-01T05:18:26Z,42.805,6.029,13.3025,4.60087,2470.777,2023-5-01T07:21:32Z
2023-05-01T05:21:30Z,42.805,6.029,13.3026,4.60083,2470.763,2023-5-01T07:24:35Z
2023-05-01T05:24:33Z,42.805,6.029,13.3025,4.60084,2470.777,2023-5-01T07:27:38Z
2023-05-01T05:27:36Z,42.805,6.029,13.3026,4.60085,2470.74,2023-5-01T07:30:41Z
2023-05-01T05:30:39Z,42.805,6.029,13.3030,4.60091,2470.763,2023-5-01T07:33:44Z
2023-05-01T05:33:42Z,42.805,6.029,13.3031,4.60084,2470.777,2023-5-01T07:36:47Z
2023-05-01T05:36:45Z,42.805,6.029,13.3028,4.60090,2470.754,2023-5-01T07:39:50Z
2023-05-01T05:39:48Z,42.805,6.029,13.3024,4.60084,2470.787,2023-5-01T07:42:54Z
2023-05-01T05:42:51Z,42.805,6.029,13.3034,4.60087,2470.763,2023-5-01T07:45:57Z
2023-05-01T05:45:54Z,42.805,6.029,13.3031,4.60096,2470.763,2023-5-01T07:49:00Z
2023-05-01T05:48:57Z,42.805,6.029,13.3028,4.60090,2470.787,2023-5-01T07:52:03Z
2023-05-01T05:52:00Z,42.805,6.029,13.3031,4.60100,2470.777,2023-5-01T07:55:06Z
2023-05-01T05:55:03Z,42.805,6.029,13.3028,4.60094,2470.777,2023-5-01T07:58:09Z
2023-05-01T05:58:06Z,42.805,6.029,13.3031,4.60093,2470.754,2023-5-01T08:01:12Z
2023-05-01T06:01:09Z,42.805,6.029,13.3031,4.60104,2470.787,2023-5-01T08:04:15Z
2023-05-01T06:04:13Z,42.805,6.029,13.3026,4.60090,2470.8,2023-5-01T08:07:18Z
2023-05-01T06:07:16Z,42.805,6.029,13.3024,4.60086,2470.74,2023-5-01T08:10:21Z
2023-05-01T06:10:19Z,42.805,6.029,13.3026,4.60087,2470.754,2023-5-01T08:13:24Z
2023-05-01T06:13:22Z,42.805,6.029,13.3026,4.60102,2470.763,2023-5-01T08:16:27Z
2023-05-01T06:16:25Z,42.805,6.029,13.3023,4.60089,2470.74,2023-5-01T08:19:30Z
2023-05-01T06:19:28Z,42.805,6.029,13.3020,4.60090,2470.754,2023-5-01T08:22:33Z
2023-05-01T06:22:31Z,42.805,6.029,13.3021,4.60081,2470.8,2023-5-01T08:25:37Z
2023-05-01T06:25:34Z,42.805,6.029,13.3027,4.60090,2470.74,2023-5-01T08:28:40Z
2023-05-01T06:28:37Z,42.805,6.029,13.3032,4.60091,2470.717,2023-5-01T08:31:43Z
2023-05-01T06:31:38Z,42.805,6.029,13.3033,4.60091,2470.717,2023-5-01T08:34:44Z
2023-05-01T06:34:41Z,42.805,6.029,13.3033,4.60093,2470.73,2023-5-01T08:37:47Z
2023-05-01T06:37:44Z,42.805,6.029,13.3026,4.60085,2470.74,2023-5-01T08:40:50Z
2023-05-01T06:40:47Z,42.805,6.029,13.3026,4.60093,2470.754,2023-5-01T08:43:53Z
2023-05-01T06:43:51Z,42.805,6.029,13.3031,4.60100,2470.754,2023-5-01T08:46:56Z
2023-05-01T06:46:54Z,42.805,6.029,13.3023,4.60085,2470.754,2023-5-01T08:49:59Z
2023-05-01T06:49:57Z,42.805,6.029,13.3021,4.60081,2470.74,2023-5-01T08:53:02Z
2023-05-01T06:53:00Z,42.805,6.029,13.3027,4.60085,2470.74,2023-5-01T08:56:05Z
2023-05-01T06:56:03Z,42.805,6.029,13.3023,4.60092,2470.754,2023-5-01T08:59:08Z
2023-05-01T06:59:06Z,42.805,6.029,13.3026,4.60090,2470.703,2023-5-01T09:02:11Z
2023-05-01T07:02:09Z,42.805,6.029,13.3023,4.60081,2470.777,2023-5-01T09:05:15Z
2023-05-01T07:05:12Z,42.805,6.029,13.3032,4.60087,2470.717,2023-5-01T09:08:18Z
2023-05-01T07:08:15Z,42.805,6.029,13.3028,4.60091,2470.74,2023-5-01T09:11:21Z
2023-05-01T07:11:18Z,42.805,6.029,13.3025,4.60086,2470.73,2023-5-01T09:14:24Z
2023-05-01T07:14:21Z,42.805,6.029,13.3026,4.60089,2470.74,2023-5-01T09:17:27Z
2023-05-01T07:17:24Z,42.805,6.029,13.3029,4.60101,2470.717,2023-5-01T09:20:30Z
2023-05-01T07:20:27Z,42.805,6.029,13.3026,4.60089,2470.754,2023-5-01T09:23:33Z
2023-05-01T07:23:31Z,42.805,6.029,13.3032,4.60092,2470.693,2023-5-01T09:26:36Z
2023-05-01T07:26:34Z,42.805,6.029,13.3027,4.60089,2470.707,2023-5-01T09:29:39Z
2023-05-01T07:29:37Z,42.805,6.029,13.3028,4.60082,2470.707,2023-5-01T09:32:42Z
2023-05-01T07:32:40Z,42.805,6.029,13.3025,4.60089,2470.717,2023-5-01T09:35:45Z
2023-05-01T07:35:43Z,42.805,6.029,13.3031,4.60087,2470.693,2023-5-01T09:38:48Z
2023-05-01T07:38:46Z,42.805,6.029,13.3025,4.60087,2470.73,2023-5-01T09:41:51Z
2023-05-01T07:41:49Z,42.805,6.029,13.3027,4.60081,2470.67,2023-5-01T09:44:55Z
2023-05-01T07:44:52Z,42.805,6.029,13.3029,4.60091,2470.693,2023-5-01T09:47:58Z
2023-05-01T07:47:55Z,42.805,6.029,13.3025,4.60087,2470.73,2023-5-01T09:51:01Z
2023-05-01T07:50:58Z,42.805,6.029,13.3027,4.60084,2470.707,2023-5-01T09:54:04Z
2023-05-01T07:54:01Z,42.805,6.029,13.3031,4.60094,2470.693,2023-5-01T09:57:07Z
2023-05-01T07:57:04Z,42.805,6.029,13.3023,4.60088,2470.717,2023-5-01T10:00:10Z
2023-05-01T08:00:07Z,42.805,6.029,13.3020,4.60079,2470.67,2023-5-01T10:03:13Z
2023-05-01T08:03:10Z,42.805,6.029,13.3028,4.60081,2470.693,2023-5-01T10:06:16Z
2023-05-01T08:06:14Z,42.805,6.029,13.3031,4.60084,2470.684,2023-5-01T10:09:19Z
2023-05-01T08:09:17Z,42.805,6.029,13.3027,4.60092,2470.73,2023-5-01T10:12:22Z
2023-05-01T08:12:20Z,42.805,6.029,13.3026,4.60086,2470.707,2023-5-01T10:15:25Z
2023-05-01T08:15:23Z,42.805,6.029,13.3021,4.60080,2470.684,2023-5-01T10:18:28Z
2023-05-01T08:18:26Z,42.805,6.029,13.3024,4.60087,2470.67,2023-5-01T10:21:32Z
2023-05-01T08:21:29Z,42.805,6.029,13.3022,4.60083,2470.67,2023-5-01T10:24:35Z
2023-05-01T08:24:32Z,42.805,6.029,13.3024,4.60088,2470.67,2023-5-01T10:27:38Z
2023-05-01T08:27:35Z,42.805,6.029,13.3026,4.60088,2470.67,2023-5-01T10:30:41Z
2023-05-01T08:30:37Z,42.805,6.029,13.3026,4.60101,2470.646,2023-5-01T10:33:42Z
2023-05-01T08:33:40Z,42.805,6.029,13.3036,4.60089,2470.693,2023-5-01T10:36:46Z
2023-05-01T08:36:43Z,42.805,6.029,13.3026,4.60086,2470.693,2023-5-01T10:39:49Z
2023-05-01T08:39:46Z,42.805,6.029,13.3024,4.60099,2470.67,2023-5-01T10:42:52Z
2023-05-01T08:42:49Z,42.805,6.029,13.3029,4.60099,2470.67,2023-5-01T10:45:55Z
2023-05-01T08:45:52Z,42.805,6.029,13.3027,4.60092,2470.707,2023-5-01T10:48:58Z
2023-05-01T08:48:55Z,42.805,6.029,13.3026,4.60103,2470.67,2023-5-01T10:52:01Z
2023-05-01T08:51:58Z,42.805,6.029,13.3026,4.60077,2470.661,2023-5-01T10:55:04Z
2023-05-01T08:55:01Z,42.805,6.029,13.3025,4.60094,2470.67,2023-5-01T10:58:07Z
2023-05-01T08:58:05Z,42.805,6.029,13.3026,4.60088,2470.624,2023-5-01T11:01:10Z
2023-05-01T09:01:08Z,42.805,6.029,13.3028,4.60089,2470.646,2023-5-01T11:04:13Z
2023-05-01T09:04:11Z,42.805,6.029,13.3029,4.60092,2470.637,2023-5-01T11:07:16Z
2023-05-01T09:07:14Z,42.805,6.029,13.3039,4.60097,2470.624,2023-5-01T11:10:19Z
2023-05-01T09:10:17Z,42.805,6.029,13.3027,4.60091,2470.624,2023-5-01T11:13:23Z
2023-05-01T09:13:20Z,42.805,6.029,13.3024,4.60089,2470.67,2023-5-01T11:16:26Z
2023-05-01T09:16:23Z,42.805,6.029,13.3029,4.60092,2470.646,2023-5-01T11:19:29Z
2023-05-01T09:19:26Z,42.805,6.029,13.3029,4.60094,2470.661,2023-5-01T11:22:32Z
2023-05-01T09:22:29Z,42.805,6.029,13.3030,4.60102,2470.661,2023-5-01T11:25:35Z
2023-05-01T09:25:32Z,42.805,6.029,13.3027,4.60092,2470.646,2023-5-01T11:28:38Z
2023-05-01T09:28:35Z,42.805,6.029,13.3029,4.60086,2470.624,2023-5-01T11:31:41Z
2023-05-01T09:31:38Z,42.805,6.029,13.3033,4.60081,2470.646,2023-5-01T11:34:44Z
2023-05-01T09:34:42Z,42.805,6.029,13.3031,4.60086,2470.624,2023-5-01T11:37:47Z
2023-05-01T09:37:45Z,42.805,6.029,13.3031,4.60087,2470.646,2023-5-01T11:40:50Z
2023-05-01T09:40:48Z,42.805,6.029,13.3026,4.60087,2470.637,2023-5-01T11:43:53Z
2023-05-01T09:43:51Z,42.805,6.029,13.3028,4.60099,2470.646,2023-5-01T11:46:56Z
2023-05-01T09:46:54Z,42.805,6.029,13.3029,4.60099,2470.661,2023-5-01T11:50:00Z
2023-05-01T09:49:57Z,42.805,6.029,13.3024,4.60079,2470.67,2023-5-01T11:53:03Z
2023-05-01T09:53:00Z,42.805,6.029,13.3030,4.60086,2470.646,2023-5-01T11:56:06Z
2023-05-01T09:56:03Z,42.805,6.029,13.3027,4.60087,2470.591,2023-5-01T11:59:09Z
2023-05-01T09:59:06Z,42.805,6.029,13.3025,4.60085,2470.624,2023-5-01T12:02:12Z
2023-05-01T10:02:09Z,42.805,6.029,13.3028,4.60086,2470.661,2023-5-01T12:05:15Z
2023-05-01T10:05:12Z,42.805,6.029,13.3026,4.60086,2470.6,2023-5-01T12:08:18Z
2023-05-01T10:08:15Z,42.805,6.029,13.3037,4.60102,2470.646,2023-5-01T12:11:21Z
2023-05-01T10:11:18Z,42.805,6.029,13.3031,4.60099,2470.6,2023-5-01T12:14:24Z
2023-05-01T10:14:22Z,42.805,6.029,13.3031,4.60094,2470.637,2023-5-01T12:17:27Z
2023-05-01T10:17:25Z,42.805,6.029,13.3028,4.60096,2470.637,2023-5-01T12:20:30Z
2023-05-01T10:20:28Z,42.805,6.029,13.3029,4.60097,2470.661,2023-5-01T12:23:33Z
2023-05-01T10:23:31Z,42.805,6.029,13.3022,4.60087,2470.624,2023-5-01T12:26:36Z
2023-05-01T10:26:34Z,42.805,6.029,13.3031,4.60087,2470.624,2023-5-01T12:29:40Z
2023-05-01T10:29:37Z,42.805,6.029,13.3029,4.60092,2470.614,2023-5-01T12:32:43Z
2023-05-01T10:32:40Z,42.805,6.029,13.3031,4.60090,2470.637,2023-5-01T12:35:46Z
2023-05-01T10:35:43Z,42.805,6.029,13.3025,4.60088,2470.637,2023-5-01T12:38:49Z
2023-05-01T10:38:46Z,42.805,6.029,13.3026,4.60097,2470.624,2023-5-01T12:41:52Z
2023-05-01T10:41:49Z,42.805,6.029,13.3029,4.60087,2470.6,2023-5-01T12:44:55Z
2023-05-01T10:44:52Z,42.805,6.029,13.3031,4.60097,2470.6,2023-5-01T12:47:58Z
2023-05-01T10:47:55Z,42.805,6.029,13.3026,4.60105,2470.624,2023-5-01T12:51:01Z
2023-05-01T10:50:59Z,42.805,6.029,13.3026,4.60090,2470.6,2023-5-01T12:54:04Z
2023-05-01T10:54:02Z,42.805,6.029,13.3027,4.60088,2470.6,2023-5-01T12:57:07Z
2023-05-01T10:57:05Z,42.805,6.029,13.3029,4.60088,2470.637,2023-5-01T13:00:10Z
2023-05-01T11:00:08Z,42.805,6.029,13.3039,4.60094,2470.586,2023-5-01T13:03:13Z
2023-05-01T11:03:11Z,42.805,6.029,13.3034,4.60094,2470.624,2023-5-01T13:06:17Z
2023-05-01T11:06:14Z,42.805,6.029,13.3026,4.60090,2470.591,2023-5-01T13:09:20Z
2023-05-01T11:09:17Z,42.805,6.029,13.3024,4.60087,2470.624,2023-5-01T13:12:23Z
2023-05-01T11:12:20Z,42.805,6.029,13.3024,4.60087,2470.614,2023-5-01T13:15:26Z
2023-05-01T11:15:23Z,42.805,6.029,13.3034,4.60092,2470.6,2023-5-01T13:18:29Z
2023-05-01T11:18:26Z,42.805,6.029,13.3031,4.60114,2470.6,2023-5-01T13:21:32Z
2023-05-01T11:21:29Z,42.805,6.029,13.3037,4.60100,2470.6,2023-5-01T13:24:35Z
2023-05-01T11:24:32Z,42.805,6.029,13.3026,4.60089,2470.6,2023-5-01T13:27:38Z
2023-05-01T11:27:35Z,42.805,6.029,13.3039,4.60104,2470.577,2023-5-01T13:30:41Z
2023-05-01T11:30:39Z,42.805,6.029,13.3027,4.60086,2470.577,2023-5-01T13:33:44Z
2023-05-01T11:33:42Z,42.805,6.029,13.3034,4.60102,2470.624,2023-5-01T13:36:47Z
2023-05-01T11:36:45Z,42.805,6.029,13.3034,4.60099,2470.6,2023-5-01T13:39:50Z
2023-05-01T11:39:48Z,42.805,6.029,13.3034,4.60110,2470.6,2023-5-01T13:42:53Z
2023-05-01T11:42:51Z,42.805,6.029,13.3034,4.60100,2470.614,2023-5-01T13:45:57Z
2023-05-01T11:45:54Z,42.805,6.029,13.3043,4.60089,2470.563,2023-5-01T13:49:00Z
2023-05-01T11:48:57Z,42.805,6.029,13.3028,4.60108,2470.624,2023-5-01T13:52:03Z
2023-05-01T11:52:00Z,42.805,6.029,13.3031,4.60097,2470.614,2023-5-01T13:55:06Z
2023-05-01T11:55:03Z,42.805,6.029,13.3043,4.60104,2470.6,2023-5-01T13:58:09Z
2023-05-01T11:58:06Z,42.805,6.029,13.3025,4.60089,2470.591,2023-5-01T14:01:12Z
2023-05-01T12:01:09Z,42.805,6.029,13.3033,4.60099,2470.586,2023-5-01T14:04:15Z
2023-05-01T12:04:12Z,42.805,6.029,13.3031,4.60101,2470.637,2023-5-01T14:07:18Z
2023-05-01T12:07:15Z,42.805,6.029,13.3030,4.60097,2470.624,2023-5-01T14:10:21Z
2023-05-01T12:10:19Z,42.805,6.029,13.3041,4.60094,2470.577,2023-5-01T14:13:24Z
2023-05-01T12:13:22Z,42.805,6.029,13.3034,4.60105,2470.6,2023-5-01T14:16:27Z
2023-05-01T12:16:25Z,42.805,6.029,13.3022,4.60092,2470.614,2023-5-01T14:19:30Z
2023-05-01T12:19:28Z,42.805,6.029,13.3030,4.60094,2470.591,2023-5-01T14:22:33Z
2023-05-01T12:22:31Z,42.805,6.029,13.3026,4.60090,2470.614,2023-5-01T14:25:37Z
2023-05-01T12:25:34Z,42.805,6.029,13.3029,4.60097,2470.637,2023-5-01T14:28:40Z
2023-05-01T12:28:37Z,42.805,6.029,13.3026,4.60084,2470.6,2023-5-01T14:31:43Z
2023-05-01T12:31:40Z,42.805,6.029,13.3031,4.60099,2470.624,2023-5-01T14:34:46Z
2023-05-01T12:34:43Z,42.805,6.029,13.3027,4.60091,2470.624,2023-5-01T14:37:49Z
2023-05-01T12:37:46Z,42.805,6.029,13.3037,4.60094,2470.661,2023-5-01T14:40:52Z
2023-05-01T12:40:49Z,42.805,6.029,13.3036,4.60092,2470.614,2023-5-01T14:43:55Z
2023-05-01T12:43:52Z,42.805,6.029,13.3030,4.60097,2470.624,2023-5-01T14:46:58Z
2023-05-01T12:46:55Z,42.805,6.029,13.3033,4.60097,2470.614,2023-5-01T14:50:01Z
2023-05-01T12:49:59Z,42.805,6.029,13.3026,4.60094,2470.646,2023-5-01T14:53:04Z
2023-05-01T12:53:02Z,42.805,6.029,13.3037,4.60094,2470.637,2023-5-01T14:56:07Z
2023-05-01T12:56:05Z,42.805,6.029,13.3024,4.60093,2470.637,2023-5-01T14:59:10Z
2023-05-01T12:59:08Z,42.805,6.029,13.3027,4.60096,2470.624,2023-5-01T15:02:14Z
2023-05-01T13:02:11Z,42.805,6.029,13.3028,4.60096,2470.624,2023-5-01T15:05:17Z
2023-05-01T13:05:14Z,42.805,6.029,13.3030,4.60094,2470.637,2023-5-01T15:08:20Z
2023-05-01T13:08:17Z,42.805,6.029,13.3030,4.60091,2470.637,2023-5-01T15:11:23Z
2023-05-01T13:11:20Z,42.805,6.029,13.3028,4.60097,2470.646,2023-5-01T15:14:26Z
2023-05-01T13:14:23Z,42.805,6.029,13.3027,4.60091,2470.661,2023-5-01T15:17:29Z
2023-05-01T13:17:26Z,42.805,6.029,13.3022,4.60085,2470.661,2023-5-01T15:20:32Z
2023-05-01T13:20:29Z,42.805,6.029,13.3024,4.60088,2470.624,2023-5-01T15:23:35Z
2023-05-01T13:23:32Z,42.805,6.029,13.3029,4.60094,2470.624,2023-5-01T15:26:38Z
2023-05-01T13:26:36Z,42.805,6.029,13.3024,4.60094,2470.624,2023-5-01T15:29:41Z
2023-05-01T13:29:39Z,42.805,6.029,13.3029,4.60091,2470.646,2023-5-01T15:32:44Z
2023-05-01T13:32:42Z,42.805,6.029,13.3028,4.60102,2470.637,2023-5-01T15:35:47Z
2023-05-01T13:35:45Z,42.805,6.029,13.3029,4.60111,2470.646,2023-5-01T15:38:51Z
2023-05-01T13:38:48Z,42.805,6.029,13.3024,4.60092,2470.624,2023-5-01T15:41:54Z
2023-05-01T13:41:51Z,42.805,6.029,13.3034,4.60093,2470.646,2023-5-01T15:44:57Z
2023-05-01T13:44:54Z,42.805,6.029,13.3036,4.60109,2470.61,2023-5-01T15:48:00Z
2023-05-01T13:47:57Z,42.805,6.029,13.3034,4.60108,2470.661,2023-5-01T15:51:03Z
2023-05-01T13:51:00Z,42.805,6.029,13.3043,4.60107,2470.614,2023-5-01T15:54:06Z
2023-05-01T13:54:03Z,42.805,6.029,13.3032,4.60103,2470.624,2023-5-01T15:57:09Z
2023-05-01T13:57:06Z,42.805,6.029,13.3035,4.60119,2470.646,2023-5-01T16:00:12Z
2023-05-01T14:00:09Z,42.805,6.029,13.3040,4.60121,2470.67,2023-5-01T16:03:15Z
2023-05-01T14:03:12Z,42.805,6.029,13.3030,4.60102,2470.624,2023-5-01T16:06:18Z
2023-05-01T14:06:16Z,42.805,6.029,13.3041,4.60111,2470.646,2023-5-01T16:09:21Z
2023-05-01T14:09:19Z,42.805,6.029,13.3028,4.60102,2470.646,2023-5-01T16:12:24Z
2023-05-01T14:12:22Z,42.805,6.029,13.3044,4.60125,2470.693,2023-5-01T16:15:27Z
2023-05-01T14:15:25Z,42.805,6.029,13.3034,4.60112,2470.661,2023-5-01T16:18:31Z
2023-05-01T14:18:28Z,42.805,6.029,13.3036,4.60117,2470.684,2023-5-01T16:21:34Z
2023-05-01T14:21:31Z,42.805,6.029,13.3034,4.60106,2470.661,2023-5-01T16:24:37Z
2023-05-01T14:24:34Z,42.805,6.029,13.3030,4.60115,2470.67,2023-5-01T16:27:40Z
2023-05-01T14:27:37Z,42.805,6.029,13.3029,4.60107,2470.684,2023-5-01T16:30:43Z
2023-05-01T14:30:38Z,42.805,6.029,13.3027,4.60092,2470.646,2023-5-01T16:33:44Z
2023-05-01T14:33:41Z,42.805,6.029,13.3029,4.60105,2470.661,2023-5-01T16:36:47Z
2023-05-01T14:36:44Z,42.805,6.029,13.3034,4.60129,2470.646,2023-5-01T16:39:50Z
2023-05-01T14:39:47Z,42.805,6.029,13.3029,4.60117,2470.646,2023-5-01T16:42:53Z
2023-05-01T14:42:50Z,42.805,6.029,13.3030,4.60111,2470.684,2023-5-01T16:45:56Z
2023-05-01T14:45:54Z,42.805,6.029,13.3041,4.60127,2470.693,2023-5-01T16:48:59Z
2023-05-01T14:48:57Z,42.805,6.029,13.3032,4.60132,2470.67,2023-5-01T16:52:02Z
2023-05-01T14:52:00Z,42.805,6.029,13.3034,4.60116,2470.67,2023-5-01T16:55:05Z
2023-05-01T14:55:03Z,42.805,6.029,13.3038,4.60119,2470.67,2023-5-01T16:58:09Z
2023-05-01T14:58:06Z,42.805,6.029,13.3024,4.60096,2470.684,2023-5-01T17:01:12Z
2023-05-01T15:01:09Z,42.805,6.029,13.3036,4.60102,2470.684,2023-5-01T17:04:15Z
2023-05-01T15:04:12Z,42.805,6.029,13.3026,4.60112,2470.693,2023-5-01T17:07:18Z
2023-05-01T15:07:15Z,42.805,6.029,13.3050,4.60126,2470.67,2023-5-01T17:10:21Z
2023-05-01T15:10:18Z,42.805,6.029,13.3029,4.60107,2470.717,2023-5-01T17:13:24Z
2023-05-01T15:13:21Z,42.805,6.029,13.3032,4.60125,2470.693,2023-5-01T17:16:27Z